Location: Santiago
(33.4378°S, 70.6505°W)
Time: 18:49:03
(UTC+00:00)

ISS - Pass Details

Date: 13 October 2025
Orbit: 414 x 421 km, 51.6° (Epoch: 07 November)

Event Time Altitude Azimuth Distance (km) Brightness Sun altitude
Rises 23:37:39 0° 278° (W) 2,372 1.4 -9.6°
Reaches altitude 10° 23:40:14 10° 258° (WSW) 1,511 0.7 -10.1°
Maximum altitude 23:42:38 18° 213° (SSW) 1,124 -0.9 -10.6°
Drops below altitude 10° 23:45:03 10° 167° (SSE) 1,517 -0.9 -11.1°
Sets 23:47:39 0° 147° (SSE) 2,385 -0.1 -11.6°
